Hourly Data Report for October 02, 2014

All times are specified in Local Standard Time (LST). Add 1 hour to adjust for Daylight Saving Time where and when it is observed.

IQALUIT CLIMATE
NUNAVUT

63°44'50.000" N
68°32'40.000" W
33.50 m
2402592
71321
XFB

Download Data

Hourly Data (October 2014)
Hourly Data Report for October 2, 2014
Temp Definition
°C
Dew Point Temp Definition
°C
Rel Hum Definition
%
Wind Dir Definition
10's deg

Wind Spd Definition
km/h
Visibility Definition
km
Stn Press Definition
kPa
Hmdx Definition


Wind Chill Definition


Weather Definition


TIME
00:00 -4.6 -8.5 74 34 3   101.50   -6 LegendNANA
01:00 -4.0 -9.7 64 31 17   101.54   -10 LegendNANA
02:00 -3.9 -9.8 64 31 14   101.57   -9 LegendNANA
03:00 -4.2 -8.3 73 30 16   101.56   -10 LegendNANA
04:00 -4.3 -8.0 75 30 10   101.55   -8 LegendNANA
05:00 -4.4 -8.5 73 32 9   101.56   -8 LegendNANA
06:00 -4.5 -8.0 77 34 9   101.56   -8 LegendNANA
07:00 -4.3 -7.8 77 36 2   101.55   -5 LegendNANA
08:00 -4.0 -7.6 76 24 2   101.55   -5 LegendNANA
09:00 -3.7 -8.0 72 22 2   101.52   -5 LegendNANA
10:00 -3.5 -7.7 73 16 7   101.48   -6 LegendNANA
11:00 -3.1 -7.2 73 15 10   101.43   -7 LegendNANA
12:00 -2.6 -6.8 73 17 8   101.39   -6 LegendNANA
13:00 -2.3 -7.5 67 24 5   101.32   -4 LegendNANA
14:00 -2.1 -8.0 64 17 8   101.26   -5 LegendNANA
15:00 -2.3 -8.1 64 16 9   101.21   -6 LegendNANA
16:00 -2.5 -7.7 67 13 6   101.16   -5 LegendNANA
17:00 -2.6 -7.7 68 12 11   101.07   -7 LegendNANA
18:00 -2.9 -7.6 70 12 14   100.99   -8 LegendNANA
19:00 -3.0 -7.0 74 13 12   100.90   -7 LegendNANA
20:00 -2.9 -6.8 74 12 16   100.81   -8 LegendNANA
21:00 -2.8 -6.9 73 13 16   100.73   -8 LegendNANA
22:00 -2.7 -6.6 75 12 16   100.65   -8 LegendNANA
23:00 -2.2 -5.9 76 13 21   100.58   -8 LegendNANA

Notes on Data Quality.

Legend

  • E = Estimated
  • M = Missing
  • NA = Not Available
  • ‡ = Partner data that is not subject to review by the National Climate Archives
Date modified: